Location: Lecco
(45.8566°N, 9.3977°E)
Time: 08:14:35
(UTC+02:00)

A-11 Canister half - Pass Details

Date: 16 August 2020
Orbit: 1514 x 1686 km, 47.2° (Epoch: 21 September)

Event Time Altitude Azimuth Distance (km) Brightness Sun altitude
Rises 22:42:49 0° 290° (WNW) 4,811 12.7 -20.2°
Reaches altitude 10° 22:45:54 10° 288° (WNW) 3,846 11.9 -20.6°
Maximum altitude 22:55:38 67° 209° (SSW) 1,769 9.1 -21.7°
Enters shadow 23:00:42 33° 138° (SE) 2,526 9.5 -22.3°
